Regional Weather Roundup
Issued by NWS

Home | Current Version | Previous Version | Text Only | Print | Product List | Glossary On
Versions: 1 2 3 4 5 6 7 8 9 10 11 12 13 14 15 16 17 18 19 20 21 22 23 24 25 26 27 28 29 30 31 32 33 34 35 36 37 38 39 40 41 42 43 44 45 46 47 48 49 50
000
ASCA42 TJSJ 300810
RWRPR
PUERTO RICO/U.S. VIRGIN ISLANDS HOURLY WEATHER ROUNDUP
NATIONAL WEATHER SERVICE SAN JUAN PR
400 AM AST THU MAR 30 2017

PRZ001>002-007>008-010-300900-
PUERTO RICO

CITY           SKY/WX    TMP DP  RH WIND       PRES   REMARKS
SAN JUAN LMM   PTCLDY    77  72  83 NE6       29.94S
PONCE          PTCLDY    72  68  88 CALM      29.96
CEIBA          CLOUDY    75  72  88 N5        29.96S
$$

VIZ001>002-300900-
U.S. VIRGIN ISLANDS

CITY           SKY/WX    TMP DP  RH WIND       PRES   REMARKS
CHARLOTTE AMA  CLEAR     75  70  83 N14       29.92S
CHRISTIANSTED  CLEAR     75  70  83 CALM      29.92F
$$

HOURLY WEATHER ROUNDUP FOR THE NEWS MEDIA

CITY           SKY/WX    TMP DP  RH WIND       PRES   REMARKS
ORLANDO        CLEAR     67  59  75 S3        29.99F
NEW YORK       PTCLDY    38  22  52 N9        30.23R WCI  31
NEWARK         CLEAR     37  23  56 N7        30.22R WCI  32
CHICAGO        HVY RAIN  42  40  92 E20G29    29.92F FOG
HARTFORD       CLEAR     31  23  72 NW3       30.12S
BOSTON         PTCLDY    35  23  61 NW14      30.13F WCI  26
DALLAS         PTCLDY    57  44  62 W13       29.85S
PHILADELPHIA   CLOUDY    41  24  51 NE12      30.22R
LOS ANGELES    CLEAR     60  55  83 SW5       30.01S
WASHINGTON DC  PTCLDY    45  31  58 NE7       30.20R


USA.gov is the U.S. government's official web portal to all federal, state and local government web resources and services.